Pullman, WA

12:57 PM PDT on August 28, 2016 (GMT -0700)
Pullman-Moscow Regional

Weather History for KPUW - September, 2013

Change the Weather History Date:

Wednesday, September 4, 2013

  Actual Average Record
Temperature  
Mean Temperature 72 °F 62 °F  
Max Temperature 88 °F 78 °F 100 °F (1988)
Min Temperature 55 °F 46 °F 31 °F (1956)
Degree Days  
Heating Degree Days 0 5  
Month to date heating degree days 0 18  
Since 1 July heating degree days 40 151  
Cooling Degree Days 7 2  
Month to date cooling degree days 21 8  
Year to date cooling degree days 283 198  
Growing Degree Days 21 (Base 50)    
Moisture  
Dew Point 55 °F    
Average Humidity 57    
Maximum Humidity 86    
Minimum Humidity 28    
Precipitation  
Precipitation T in 0.02 in 0.72 in (1960)
Month to date precipitation 0.05 0.08  
Year to date precipitation 8.93 10.99  
Sea Level Pressure  
Sea Level Pressure 29.97 in    
Wind  
Wind Speed 6 mph (NNE)    
Max Wind Speed 17 mph    
Max Gust Speed 22 mph    
Visibility 9 miles    
Events      
T = Trace of Precipitation, MM = Missing Value Source: NWS Daily Summary

Daily Weather History Graph

Daily Weather History Graph

Search for Another Location

Airport or City:

Trip Planner

Search our weather history database for the weather conditions in past years. The results will help you decide how hot, cold, wet, or windy it might be!

Date:

Astronomy

Sep. 04, 2013 Rise Set
Actual Time 6:12 AM PDT 7:21 PM PDT
Civil Twilight 5:41 AM PDT 7:52 PM PDT
Nautical Twilight 5:03 AM PDT 8:29 PM PDT
Astronomical Twilight 4:24 AM PDT 9:09 PM PDT
Moon 5:29 AM PDT (9/4) 6:40 PM PDT (9/4)
Length of Visible Light 14h 10m
Length of Day
13h 08m
Waning Crescent, 1% of the Moon is Illuminated
Sep 4
Waning Crescent
Sep 5
New
Sep 12
First Quarter
Sep 19
Full
Sep 26
Last Quarter

Hourly Weather History & Observations

Time (PDT) Temp. Heat Index Dew Point Humidity Pressure Visibility Wind Dir Wind Speed Gust Speed Precip Events Conditions
12:53 AM 64.9 °F - 54.0 °F 68% 29.96 in 10.0 mi Calm Calm - N/A   Clear
1:53 AM 68.0 °F - 54.0 °F 61% 29.95 in 10.0 mi ENE 3.5 mph - N/A   Clear
2:53 AM 68.0 °F - 54.0 °F 61% 29.95 in 10.0 mi Calm Calm - N/A   Clear
3:53 AM 66.9 °F - 55.0 °F 66% 29.96 in 9.0 mi West 4.6 mph - N/A   Clear
4:53 AM 61.0 °F - 54.0 °F 78% 29.98 in 9.0 mi Calm Calm - N/A   Clear
5:53 AM 57.0 °F - 52.0 °F 83% 29.99 in 9.0 mi Calm Calm - N/A   Clear
6:53 AM 55.9 °F - 51.1 °F 84% 30.00 in 7.0 mi Calm Calm - N/A   Clear
7:53 AM 71.1 °F - 55.9 °F 59% 29.99 in 8.0 mi East 6.9 mph - N/A   Clear
8:53 AM 75.9 °F - 55.9 °F 50% 29.99 in 9.0 mi East 11.5 mph - N/A   Clear
9:53 AM 80.1 °F 80.2 °F 55.9 °F 43% 30.00 in 9.0 mi East 8.1 mph - N/A   Clear
10:53 AM 84.9 °F 83.6 °F 55.0 °F 36% 29.99 in 10.0 mi East 6.9 mph - N/A   Clear
11:53 AM 86.0 °F 84.0 °F 53.1 °F 32% 29.99 in 10.0 mi SSW 8.1 mph - N/A   Clear
12:53 PM 87.1 °F - 50.0 °F 28% 29.98 in 10.0 mi SSW 10.4 mph - N/A   Clear
1:53 PM 84.9 °F 83.2 °F 53.1 °F 33% 29.99 in 10.0 mi West 9.2 mph - N/A   Clear
2:53 PM 81.0 °F 80.8 °F 55.9 °F 42% 29.99 in 9.0 mi West 10.4 mph - N/A   Partly Cloudy
3:53 PM 82.9 °F 82.4 °F 57.0 °F 41% 29.96 in 10.0 mi North 5.8 mph - 0.00 in   Overcast
4:53 PM 84.9 °F 83.6 °F 55.0 °F 36% 29.95 in 10.0 mi NE 5.8 mph - N/A   Partly Cloudy
5:53 PM 82.0 °F 81.4 °F 55.0 °F 39% 29.94 in 9.0 mi North 4.6 mph - N/A   Clear
6:53 PM 81.0 °F 80.7 °F 55.0 °F 41% 29.92 in 9.0 mi North 8.1 mph - N/A   Mostly Cloudy
7:53 PM 78.1 °F - 55.0 °F 45% 29.92 in 10.0 mi NE 6.9 mph - N/A   Clear
8:53 PM 73.0 °F - 55.0 °F 53% 29.93 in 10.0 mi Calm Calm - N/A   Clear
9:53 PM 75.0 °F - 55.0 °F 50% 29.93 in 3.0 mi NW 5.8 mph - N/A   Haze
10:04 PM 73.4 °F - 55.4 °F 53% 30.00 in 4.0 mi NNW 5.8 mph - N/A   Haze
10:29 PM 71.6 °F - 57.2 °F 60% 30.00 in 10.0 mi NNE 8.1 mph - N/A   Scattered Clouds
10:53 PM 72.0 °F - 55.9 °F 57% 29.94 in 10.0 mi NNE 15.0 mph - N/A   Clear
11:53 PM 73.0 °F - 55.0 °F 53% 29.91 in 10.0 mi NE 10.4 mph - N/A   Clear